Location: Boiro
(42.6475°N, 8.8834°W)
Time: 18:39:36
(UTC+01:00)

Tiros 1 - Pass Details

Date: 10 December 2021
Orbit: 630 x 663 km, 48.4° (Epoch: 20 January)

Event Time Altitude Azimuth Distance (km) Brightness Sun altitude
Rises 22:19:26 0° 295° (WNW) 2,934 11.2 -46.4°
Enters shadow 22:20:04 - 296° (WNW) 2,691 11.0 -46.5°
Reaches altitude 10° 22:21:46 10° 298° (WNW) 2,029 - -46.8°
Maximum altitude 22:26:26 71° 23° (NNE) 682 - -47.6°
Drops below altitude 10° 22:31:09 10° 107° (ESE) 2,045 - -48.5°
Sets 22:33:30 0° 110° (ESE) 2,960 - -48.9°
